#timestamp,LO_Frequency,Hit,StdDev 
1702123215.4,286046998.4,P
1702123235.2,286046998.7,N
1702123255.1,286046998.2,N
1702123256.0,286046998.2,N
1702123275.8,286046998.3,N
1702123295.7,286046999.5,N
1702123315.5,286046999.2,N
1702123335.3,286046999.0,N
1702123355.2,286046999.1,N
1702123375.9,286046999.0,N
1702123395.7,286046998.6,N
1702123415.6,286046999.6,N
1702123435.4,286046997.2,Y
1702123455.3,286046998.5,P
1702123475.1,286047000.4,N
1702123476.0,286047000.4,N
1702123495.8,286046999.7,N
1702123515.7,286046998.6,N
1702123535.5,286046998.5,N
1702123555.3,286047001.0,N
1702123575.2,286047000.2,N
1702123595.0,286047000.7,N
1702123595.9,286047000.7,N
1702123615.8,286046998.7,N
1702123635.6,286046999.1,N
1702123655.4,286046998.6,N
1702123675.3,286046999.4,N
1702123695.1,286046999.6,N
1702123696.0,286046999.6,N
1702123715.8,286046999.6,N
1702123735.7,286046999.0,N
1702123755.5,286046996.9,Y
1702123775.4,286046998.3,P
1702123795.2,286047001.2,N
1702123815.0,286046999.9,N
1702123815.9,286046999.9,N
1702123835.8,286046999.1,N
1702123855.6,286046998.7,N
1702123875.4,286046998.6,N
1702123895.3,286047000.8,N
1702123915.1,286047001.1,N
1702123935.8,286046998.4,N
1702123955.7,286046998.3,N
1702123975.5,286046998.3,N
1702123995.4,286046999.1,N
1702124015.2,286046996.5,Y
1702124035.0,286046999.0,P
1702124035.9,286046999.0,P
1702124055.8,286046998.5,P
1702124075.6,286046999.3,N
1702124095.5,286046998.7,Y
1702124115.3,286047001.2,P
1702124135.1,286047000.8,N
1702124155.9,286047000.1,N
1702124175.7,286046999.8,N
1702124195.5,286047002.6,Y
1702124215.4,286047001.9,P
1702124235.2,286047002.4,N
1702124255.0,286046999.9,N
1702124256.0,286046999.9,N
1702124275.8,286047001.0,N
1702124295.6,286047001.9,N
1702124315.5,286047000.9,N
1702124335.3,286047001.0,N
1702124355.1,286047000.8,N
1702124375.9,286047000.0,N
1702124395.7,286047000.3,N
1702124415.5,286046999.7,N
1702124435.4,286047002.6,Y
1702124455.2,286047002.3,P
1702124475.1,286047001.2,N
1702124476.0,286047001.2,N
1702124495.8,286046999.3,N
1702124515.6,286046998.1,N
1702124535.5,286047000.4,N
1702124555.3,286046999.3,N
1702124575.1,286047000.5,N
1702124595.9,286047001.2,N
1702124615.7,286047002.2,N
1702124635.6,286047002.8,N
1702124655.4,286047002.7,N
1702124675.2,286047000.9,N
1702124695.1,286046999.9,N
1702124696.0,286046999.9,N
1702124715.8,286047000.3,N
1702124735.6,286047000.3,N
1702124755.5,286047000.8,N
1702124775.3,286047002.5,N
1702124795.2,286046999.7,N
1702124815.9,286047000.0,N
1702124835.7,286047000.2,N
1702124855.6,286047002.7,N
1702124875.4,286047000.6,N
1702124895.2,286047000.3,N
1702124915.1,286046999.7,N
1702124916.0,286046999.7,N
1702124935.8,286046999.9,N
1702124955.7,286046998.9,N
1702124975.5,286046998.6,N
1702124995.3,286047000.8,N
1702125015.2,286046999.9,N
1702125035.0,286047000.8,N
1702125035.9,286047000.8,N
1702125055.7,286047000.3,N
1702125075.6,286046998.2,N
1702125095.4,286047000.4,N
1702125115.3,286047001.1,N
1702125135.1,286046998.4,N
1702125136.0,286046998.4,N
1702125155.8,286046998.7,N
1702125175.7,286047001.1,N
1702125195.5,286046998.4,N
1702125215.3,286046998.5,N
1702125235.2,286047000.9,N
1702125255.0,286047000.9,N
1702125255.9,286047000.9,N
1702125275.8,286046996.5,Y
1702125295.6,286046998.8,P
1702125315.4,286046996.9,P
1702125335.3,286046999.2,N
1702125355.1,286046996.5,Y
1702125375.9,286047000.9,P
1702125395.7,286046999.7,N
1702125415.5,286047000.9,N
1702125435.4,286046998.3,N
1702125455.2,286047002.0,N
1702125475.1,286047005.4,Y
1702125476.0,286047005.4,P
1702125495.8,286047008.9,P
1702125515.6,286047009.1,N
1702125535.5,286047007.1,N
1702125555.3,286047005.3,N
1702125575.1,286047005.4,N
1702125595.9,286047005.7,N
1702125615.7,286047006.0,N
1702125635.6,286047003.2,N
1702125655.4,286047003.6,N
1702125675.2,286047003.6,N
1702125695.1,286047005.5,N
1702125696.0,286047005.5,N
1702125715.8,286047004.2,N
1702125735.6,286047004.3,N
1702125755.5,286047003.5,N
1702125775.3,286047003.9,N
1702125795.2,286047002.6,N
1702125815.9,286047001.6,N
1702125835.7,286046999.9,N
1702125855.6,286047001.9,N
1702125875.4,286047001.4,N
1702125895.2,286047001.8,N
1702125915.1,286047001.8,N
1702125916.0,286047001.8,N
1702125935.8,286047003.5,N
1702125955.7,286047003.4,N
1702125975.5,286047005.8,N
1702125995.3,286047001.3,N
1702126015.2,286047004.1,N
1702126035.9,286047004.3,N
1702126055.7,286047001.6,N
1702126075.6,286047002.0,N
1702126095.4,286047003.8,N
1702126115.3,286047002.5,N
1702126135.1,286047000.3,N
1702126136.0,286047000.3,N
1702126155.8,286047000.5,N
1702126175.7,286047000.5,N
1702126195.5,286047001.1,N
1702126215.3,286047000.5,N
1702126235.2,286047000.0,N
1702126255.0,286047000.4,N
1702126255.9,286047000.4,N
1702126275.8,286047002.4,N
1702126295.6,286047000.1,N
1702126315.4,286047000.5,N
1702126335.3,286047002.2,N
1702126355.1,286047002.9,N
1702126375.8,286047001.3,N
1702126395.7,286046999.9,N
1702126415.5,286047000.6,N
1702126435.4,286047002.8,N
1702126455.2,286047002.6,N
1702126475.0,286047002.3,N
1702126475.9,286047002.3,N
1702126495.8,286047000.2,N
1702126515.6,286047001.0,N
1702126535.4,286047000.1,N
1702126555.3,286047011.9,Y
1702126575.1,286046999.1,P
1702126595.9,286047001.2,N
1702126615.7,286047000.6,N
1702126635.5,286047001.1,N
1702126655.4,286046998.5,N
1702126675.2,286046998.7,N
1702126695.0,286047000.3,N
1702126696.0,286047000.3,N
1702126715.8,286046997.0,N
1702126735.6,286046999.4,N
1702126755.5,286047000.4,N
1702126775.3,286046998.9,N
1702126795.1,286046999.3,N
